Location: Elsarn
(48.3667°N, 15.3667°E)
Time: 04:20:10
(UTC+00:00)

Daily predictions for brighter satellites

Satellite Brightness Start Highest point End
(mag) Time Altitude Azimuth Time Altitude Azimuth Time Altitude Azimuth
Cosmos 2360 Rocket 4.4 02:08:39 20° NE 02:08:39 20° NE 02:12:36 10° E
CZ-4C R/B 4.5 02:12:26 20° NNE 02:12:26 20° NNE 02:14:58 10° NE
SL-16 R/B 4.1 02:18:24 26° E 02:18:24 26° E 02:21:08 10° ESE
Cosmos 2322 Rocket 3.8 02:23:47 30° E 02:23:47 30° E 02:27:17 10° ESE
ATLAS 2AS CENTAUR R/B 3.2 02:28:20 60° ENE 02:28:20 60° ENE 02:35:02 10° ESE
USA 234 3.8 02:49:07 10° ENE 02:54:47 47° N 02:54:47 47° N
Lacrosse 5 3.5 02:57:41 28° NE 02:57:41 28° NE 03:00:20 10° NE
Cosmos 2219 Rocket 4.5 02:54:24 13° N 02:57:11 18° NE 03:01:00 10° E
SJ 16-02 3.9 03:04:04 14° NNE 03:04:04 14° NNE 03:04:40 10° NNE
Cosmos 1937 Rocket 4.5 03:03:26 40° NE 03:03:26 40° NE 03:06:48 10° NNE
Cosmos 2333 Rocket 4.3 03:02:35 14° N 03:05:47 21° NE 03:10:05 10° E
Lacrosse 5 rocket 3.6 03:14:37 20° ENE 03:14:37 20° ENE 03:16:05 10° E
MSX 3.8 03:08:40 10° NNE 03:14:22 84° ENE 03:14:22 84° ENE
COSMOS 2455 3.2 03:16:30 52° S 03:16:30 52° S 03:21:04 10° SSE
CZ-2C R/B 2.9 03:11:13 10° NNE 03:15:58 56° E 03:16:09 55° ESE
COSMO-SKYMED 1 4.4 03:14:04 10° SE 03:17:49 29° ENE 03:20:37 15° NNE
In-Cosmos 22 Rocket 4.2 03:20:45 52° S 03:22:05 76° E 03:27:39 10° NNE
PAYLOAD A 4.1 03:20:15 10° NNE 03:25:41 84° ESE 03:26:49 58° S
Cosmos 2082 Rocket 3.6 03:30:54 25° N 03:30:54 25° N 03:33:48 10° NNE
ATLAS CENTAUR R/B 2.2 03:28:10 55° SSE 03:28:39 59° ESE 03:33:20 10° NE
Cosmos 2173 Rocket 4.1 03:24:30 10° S 03:30:42 73° E 03:36:52 10° NNE
STARLINK-71 4.4 03:31:34 49° E 03:31:34 49° E 03:34:52 10° ENE
Cosmos 1153 Rocket 4.3 03:31:40 69° W 03:31:47 69° W 03:37:57 10° N
STARLINK-79 4.4 03:32:56 50° ESE 03:32:56 50° ESE 03:36:22 10° ENE
Cosmos 1408 4.0 03:33:48 34° ENE 03:33:48 34° ENE 03:36:23 10° NNE
STARLINK-78 4.3 03:34:31 52° ESE 03:34:31 52° ESE 03:38:01 10° ENE
Cosmos 1833 Rocket 4.4 03:37:12 18° N 03:37:12 18° N 03:39:20 10° N
SL-4 R/B 3.0 03:36:54 47° S 03:36:54 47° S 03:40:46 10° SE
STARLINK-49 4.1 03:37:42 57° ESE 03:37:42 57° ESE 03:41:21 10° ENE
STARLINK-27 4.1 03:39:19 59° ESE 03:39:19 59° ESE 03:43:01 10° ENE
NOSS 3-4 (A) 3.7 03:36:44 46° NW 03:39:08 81° SW 03:46:49 10° SSE
NOSS 3-4 (C) 3.7 03:36:49 46° NW 03:39:14 81° SW 03:46:55 10° SSE
STARLINK-74 4.0 03:40:54 61° ESE 03:40:54 61° ESE 03:44:40 10° ENE
Cosmos 1151 Rocket 3.2 03:40:44 49° NNE 03:41:46 69° E 03:46:05 10° SSE
STARLINK-39 3.9 03:42:29 64° ESE 03:42:29 64° ESE 03:46:19 10° ENE
STARLINK 3.8 03:44:06 66° SE 03:44:06 66° SE 03:48:01 10° ENE
STARLINK-42 3.8 03:44:47 69° ESE 03:44:47 69° ESE 03:48:41 10° ENE
Meteor PRIRODA 4.5 03:41:41 10° NNE 03:45:16 49° E 03:48:48 10° S
Cosmos 2061 Rocket 4.2 03:39:34 10° S 03:45:44 69° E 03:51:55 10° NNE
Cosmos 2237 4.3 03:44:05 30° NNW 03:47:01 74° ENE 03:52:43 10° SE
STARLINK-21 3.7 03:47:21 71° SE 03:47:21 71° SE 03:51:24 10° ENE
STARLINK-45 3.6 03:49:15 78° SE 03:49:15 78° SE 03:53:17 10° ENE
NOSS 3-3 (A) 4.1 03:48:22 50° WNW 03:49:15 53° NW 03:55:58 10° NE
NOSS 3-3 (C) 4.1 03:48:26 50° WNW 03:49:21 54° NW 03:56:04 10° NE
Cosmos 1437 4.5 03:47:53 10° SSE 03:50:38 31° E 03:53:24 10° NNE
CZ-4B R/B 4.0 03:46:24 10° NNE 03:50:56 89° NW 03:54:33 15° SSW
Gbstr 26 Del rocket 3.2 03:51:52 49° NNE 03:51:52 49° NNE 03:54:57 10° ENE
Cosmos 1400 Rocket 4.4 03:48:11 10° N 03:51:57 35° ENE 03:55:38 10° SE
STARLINK-76 3.6 03:52:08 76° SSE 03:52:13 77° SSE 03:56:22 10° ENE
Cosmos 2360 Rocket 2.2 03:50:28 31° NNW 03:53:22 84° ENE 03:59:03 10° SSE
STARLINK 3.5 03:53:43 77° S 03:53:51 78° SSE 03:58:01 10° ENE
COSMOS 2487 3.2 03:55:00 44° NE 03:55:00 44° NE 03:57:31 10° NNE
STARLINK-32 3.5 03:55:18 76° SSW 03:55:31 80° SSE 03:59:39 10° ENE
Cosmos 1328 Rocket 3.3 03:55:27 69° NW 03:55:54 80° W 04:00:12 10° S
IDEFIX/ARIANE 42P 4.3 03:52:06 10° N 03:53:43 18° NNW 03:53:43 18° NNW
STARLINK-40 3.5 03:56:53 76° SSW 03:57:10 81° SSE 04:01:19 10° ENE
COSMOS 2428 4.0 03:53:17 12° NNW 03:58:14 38° NE 04:03:32 10° ESE
Cosmos 2237 Rocket 4.3 03:54:17 10° N 03:58:26 20° NE 04:02:34 10° E
Okean O Rocket 3.7 03:54:41 10° NE 03:58:29 29° E 04:02:16 10° SSE
Cosmos 2228 Rocket 4.1 03:54:11 10° N 03:58:38 47° ENE 04:03:04 10° SSE
STARLINK-44 3.5 03:58:30 74° SW 03:58:50 83° SSE 04:03:00 10° ENE
SL-16 R/B 2.6 04:00:21 41° WSW 04:00:21 41° WSW 04:05:16 10° S
CZ-4C R/B 4.1 03:57:37 18° NNW 04:00:08 22° N 04:05:30 10° NE
STARLINK-36 3.5 04:00:07 72° SW 04:00:30 85° SSE 04:04:40 10° ENE
STARLINK-61 3.4 04:01:48 72° NNW 04:01:52 73° NNW 04:05:55 10° ENE
Cosmos 1515 Rocket 3.6 03:58:31 16° N 04:01:59 75° E 04:06:19 10° SSE
BREEZE-M DEB (TANK) 4.1 03:57:37 30° WNW 04:03:24 60° SW 04:07:40 10° SE
STARLINK-80 3.9 04:04:28 46° N 04:04:28 46° N 04:08:02 10° ENE
SKYMED 2 3.5 04:01:27 10° SSE 04:05:47 84° ENE 04:09:18 16° NNW
Cosmos 2151 3.8 04:07:26 35° NNW 04:07:26 35° NNW 04:10:11 10° N
Cosmos 1048 Rocket 3.9 04:02:41 25° NNW 04:05:58 84° WSW 04:11:19 10° SSE
Cosmos 2322 Rocket 2.5 04:05:41 42° W 04:06:10 43° WSW 04:11:29 10° S
STARLINK-35 3.5 04:06:30 63° WSW 04:07:09 89° NNW 04:11:19 10° ENE
STARLINK-26 3.4 04:07:18 66° W 04:07:49 81° NNW 04:11:56 10° ENE
Cosmos 1743 Rocket 4.3 04:04:28 10° S 04:08:40 54° E 04:12:54 10° NNE
STARLINK-51 3.5 04:08:05 60° WSW 04:08:48 87° NNW 04:12:59 10° ENE
Cosmos 1459 Rocket 3.9 04:03:03 10° SSW 04:09:12 62° WNW 04:15:30 10° N
COBE Rocket 4.0 04:04:48 10° S 04:09:49 57° W 04:13:10 21° NNW
STARLINK-30 3.5 04:09:40 58° WSW 04:10:27 86° NNW 04:14:37 10° ENE
H-2A R/B 3.7 04:06:48 10° N 04:09:24 29° NNW 04:09:24 29° NNW
STARLINK-43 4.0 04:11:20 40° N 04:11:27 40° N 04:15:00 10° ENE
STARLINK-33 3.5 04:11:18 55° WSW 04:12:09 84° NNW 04:16:20 10° ENE
STARLINK-50 3.5 04:12:54 54° WSW 04:13:49 83° NNW 04:17:59 10° ENE
Cosmos 2298 Rocket 3.9 04:09:12 11° SSW 04:14:19 68° WNW 04:19:38 10° NNE
CZ-4B R/B 4.0 04:11:07 10° N 04:12:50 25° N 04:12:50 25° N
STARLINK-46 3.0 04:15:06 62° SSE 04:15:06 62° SSE 04:17:44 10° SE
STARLINK-56 3.5 04:16:05 49° WSW 04:17:08 80° NNW 04:21:18 10° ENE
ALOS 2.9 04:13:49 10° NNE 04:18:27 57° E 04:23:03 10° S
ATLAS 2AS CENTAUR R/B 3.3 04:15:49 30° WNW 04:18:39 40° WSW 04:25:05 10° S
PSLV R/B 3.7 04:14:44 10° NNE 04:18:39 82° WNW 04:22:38 10° SSW
Starlink (trailer) 3.5 04:17:39 47° WSW 04:18:46 79° NNW 04:22:56 10° ENE
STARLINK-38 3.5 04:19:18 45° W 04:20:28 77° NNW 04:24:37 10° ENE
STARLINK-65 3.5 04:20:52 44° W 04:22:07 76° NNW 04:26:16 10° ENE
Cosmos 1408 Rocket 3.5 04:18:42 10° SSW 04:22:56 57° WNW 04:27:16 10° N
Cosmos 2016 Rocket 3.9 04:17:19 10° SSW 04:23:34 69° W 04:29:56 10° N
FENGYUN 3A 4.2 04:18:15 10° NNE 04:23:38 62° ESE 04:28:58 10° S
Cosmos 1725 Rocket 3.9 04:17:48 10° S 04:24:06 84° W 04:30:28 10° N
STARLINK-60 3.6 04:24:24 41° NNW 04:25:05 49° NNE 04:28:22 10° E
STARLINK-69 3.5 04:25:44 39° W 04:27:10 71° NNW 04:31:19 10° ENE
STARLINK-66 3.5 04:27:18 37° W 04:28:48 71° NNW 04:32:57 10° ENE
STARLINK-41 3.6 04:28:52 36° W 04:30:27 70° NNW 04:34:35 10° ENE
Cosmos 1500 Rocket 3.6 04:26:36 10° S 04:31:03 83° E 04:35:31 10° N
Cosmos 1238 Rocket 4.0 04:25:30 10° S 04:31:55 78° E 04:37:33 10° NNE
STARLINK-64 3.6 04:30:29 35° W 04:32:07 68° NNW 04:36:16 10° ENE
Cosmos 2333 4.2 04:28:09 12° NNW 04:33:37 88° ENE 04:39:25 10° SSE
STARLINK-70 3.6 04:32:05 33° W 04:33:48 68° NNW 04:37:57 10° ENE
STARLINK-68 3.6 04:33:49 32° W 04:35:35 65° NNW 04:39:43 10° ENE
STARLINK-58 3.6 04:35:15 31° W 04:37:05 65° NNW 04:41:14 10° ENE
USA 234 3.9 04:31:37 10° ENE 04:37:41 43° N 04:42:07 18° NW
Meteor 2-3 Rocket 3.9 04:32:23 10° S 04:38:09 81° E 04:43:59 10° NNE
Cosmos 1606 2.6 04:35:01 14° NNW 04:38:13 59° W 04:41:58 10° S
STARLINK-62 3.7 04:37:01 30° W 04:38:55 63° NNW 04:43:02 10° ENE
Lacrosse 5 3.0 04:36:54 21° NW 04:39:17 31° N 04:43:47 10° ENE
SJ 16-02 3.4 04:41:05 13° NNW 04:41:05 13° NNW 04:41:59 10° NNW
Cosmos 972 Rocket 4.2 04:34:45 10° SSW 04:39:54 79° ESE 04:45:42 10° NNE
Cosmos 2322 3.6 04:35:07 13° NNW 04:40:17 73° WSW 04:45:55 10° SSE
STARLINK-63 3.6 04:38:29 29° W 04:40:29 63° NNW 04:44:37 10° ENE
Cosmos 1766 Rocket 4.4 04:41:27 26° WNW 04:41:27 26° WNW 04:45:08 10° NNW
STARLINK 3.6 04:39:49 27° W 04:41:55 65° NNW 04:46:03 10° ENE
Cosmos 2219 Rocket 2.4 04:36:30 10° NNW 04:42:11 73° ENE 04:47:51 10° SE
RESURS DK-1 3.7 04:38:19 10° NNW 04:42:13 37° NE 04:46:04 10° ESE
Cosmos 494 Rocket 3.9 04:37:55 10° NNW 04:43:11 74° WSW 04:48:22 10° SSE
STARLINK-72 3.7 04:41:34 27° W 04:43:42 63° NNW 04:47:50 10° ENE
CZ-4B R/B 3.4 04:38:22 10° NNE 04:43:48 74° ESE 04:49:18 10° S
SJ-12 3.9 04:39:42 10° N 04:43:50 63° WNW 04:47:56 10° SSW
Cosmos 1825 2.6 04:42:09 10° SW 04:45:40 37° WNW 04:49:13 10° N
STARLINK-48 4.1 04:44:48 26° WNW 04:46:31 42° N 04:50:15 10° ENE
STARLINK-59 3.7 04:44:54 25° W 04:47:09 60° NNW 04:51:16 10° ENE
STARLINK-57 3.7 04:46:26 24° W 04:48:46 59° NNW 04:52:53 10° ENE
STARLINK-52 3.6 04:48:35 24° NW 04:50:25 51° NNE 04:53:52 10° E
Cosmos 1933 3.8 04:47:18 13° NNW 04:50:30 37° W 04:54:12 10° SSW
Tsikada Rocket 4.1 04:44:36 10° NNW 04:50:47 54° W 04:56:53 10° SSW
Cosmos 2333 Rocket 2.3 04:45:07 10° NNW 04:50:56 86° ENE 04:56:43 10° SSE
STARLINK-28 3.8 04:49:43 22° W 04:52:11 57° NNW 04:56:17 10° ENE
Cosmos 1269 Rocket 4.0 04:46:53 10° NNW 04:52:12 73° WSW 04:57:27 10° SSE
Lacrosse 5 rocket 0.9 04:50:17 24° WNW 04:52:17 70° SW 04:55:50 10° SE
STARLINK-75 3.8 04:51:00 22° W 04:53:28 54° NNW 04:57:33 10° ENE
CZ-2C R/B 3.5 04:50:12 10° NNW 04:53:49 22° WNW 04:55:30 18° W
COSMO-SKYMED 1 3.3 04:50:01 10° SSW 04:53:55 32° W 04:57:49 10° NNW
Abrixas rocket 1.9 04:52:40 25° W 04:54:15 86° S 04:57:17 10° E
STARLINK-53 3.8 04:51:50 21° W 04:54:25 57° NNW 04:58:31 10° ENE
STARLINK-54 3.8 04:52:52 21° W 04:55:29 56° NNW 04:59:36 10° ENE
Cosmos 1315 Rocket 3.2 04:52:07 10° N 04:56:10 68° ENE 05:00:13 10° SSE
Meteor 1-31 Rocket 4.4 04:54:54 10° NNW 04:56:44 17° NW 04:56:44 17° NW
USA 116 4.0 04:56:24 10° SSW 04:59:33 36° W 05:03:05 10° NNW
STARLINK-37 3.8 04:57:04 19° W 04:59:51 54° NNW 05:03:56 10° ENE
COSMOS 2455 4.5 04:59:43 13° W 04:59:57 13° W 05:02:35 10° SW
STARLINK-55 3.8 04:57:34 19° W 05:00:24 55° NNW 05:04:29 10° ENE
STARLINK-34 3.9 04:59:17 18° W 05:02:10 53° NNW 05:06:14 10° ENE
Cosmos 1484 Rocket 3.6 04:58:54 10° N 05:02:25 30° WNW 05:05:56 10° SW
STARLINK-29 3.4 05:00:31 19° WNW 05:02:50 61° NNE 05:06:17 10° ESE
MOS 1-B 4.5 04:57:21 10° N 05:02:58 52° WNW 05:08:32 10° SW
STARLINK-81 3.8 05:00:37 17° W 05:03:37 54° NNW 05:07:42 10° ENE
STARLINK-24 3.9 05:00:53 17° W 05:03:51 53° NNW 05:07:57 10° ENE
Cosmos 2251 Rocket 4.5 04:59:37 10° NNW 05:04:44 47° ENE 05:09:47 10° SE
NOSS 0 Rocket 4.3 04:58:36 10° NNW 05:04:52 68° ENE 05:11:06 10° SE
Cosmos 1125 Rocket 3.7 05:00:27 10° SW 05:05:35 51° WNW 05:10:44 10° NNE
STARLINK-77 3.9 05:03:46 16° W 05:06:55 53° NNW 05:10:59 10° ENE
ATLAS CENTAUR R/B 2.6 05:04:26 14° W 05:07:55 30° NW 05:12:04 10° NNE
FALCON 9 DEB 3.2 05:05:29 17° WNW 05:07:58 69° NNE 05:11:24 10° ESE
Cosmos 1408 4.2 05:08:21 16° WNW 05:08:21 16° WNW 05:10:31 10° NNW
STARLINK-25 3.9 05:05:21 15° W 05:08:35 53° NNW 05:12:40 10° ENE
STARLINK-71 3.9 05:07:14 15° W 05:10:29 50° NNW 05:14:33 10° ENE
STARLINK-79 3.9 05:08:36 14° W 05:11:58 51° NNW 05:16:02 10° ENE
TIMED 4.5 05:09:14 10° NNW 05:13:36 72° WSW 05:17:56 10° SSE
Cosmos 1782 2.8 05:09:41 10° NNW 05:13:36 58° W 05:17:30 10° S
STARLINK-78 3.9 05:10:12 14° W 05:13:37 51° NNW 05:17:41 10° ENE
Cosmos 2082 Rocket 4.2 05:13:41 10° NW 05:14:39 10° NNW 05:15:38 10° NNW
SL-4 R/B 4.4 05:12:32 10° W 05:15:02 14° SW 05:17:35 10° SSW
H-2A R/B 3.4 05:11:48 10° NNE 05:15:28 56° E 05:19:06 10° S
STARLINK-49 4.0 05:13:23 13° W 05:16:57 50° NNW 05:21:00 10° ENE
Okean-O 4.4 05:12:53 10° NNE 05:17:00 36° E 05:21:06 10° SSE
SL-16 R/B 3.9 05:12:28 10° NNW 05:17:19 28° NE 05:22:09 10° ESE
Meteor 2-6 Rocket 4.2 05:12:12 10° NNW 05:17:40 90° W 05:23:12 10° S
PAYLOAD B 4.4 05:12:56 10° N 05:18:13 48° WNW 05:23:27 10° SW
STARLINK-27 4.0 05:15:00 12° W 05:18:37 49° NNW 05:22:40 10° ENE
STARLINK-74 4.0 05:16:35 12° W 05:20:18 49° NNW 05:24:21 10° ENE
STARLINK-39 4.0 05:18:10 11° W 05:21:56 49° NNW 05:25:59 10° ENE
NOAA 6 4.1 05:17:44 10° N 05:22:44 53° WNW 05:27:41 10° SW
STARLINK 4.0 05:19:47 11° W 05:23:38 48° N 05:27:40 10° ENE
Cosmos 1437 4.4 05:22:09 10° WSW 05:23:53 14° WNW 05:25:38 10° NNW
STARLINK-42 4.0 05:20:28 11° W 05:24:19 47° N 05:28:21 10° ENE
STARLINK-21 4.0 05:23:02 10° W 05:27:02 47° N 05:31:04 10° ENE
Cosmos 1633 2.6 05:23:38 10° S 05:27:15 88° ESE 05:30:55 10° N
Cosmos 1400 Rocket 4.1 05:25:04 10° NW 05:28:13 22° W 05:31:19 10° SW
STARLINK-45 4.1 05:24:57 10° W 05:28:57 46° N 05:32:57 10° ENE
Cosmos 2233 Rocket 4.3 05:23:25 10° SW 05:29:25 45° WNW 05:35:29 10° N
COSMOS 2487 4.4 05:28:40 10° WNW 05:29:39 11° NW 05:30:45 10° NNW
STARLINK-76 4.1 05:28:00 10° W 05:32:01 46° N 05:36:03 10° ENE
Timation 2 Rocket 3.8 05:26:05 10° SW 05:32:06 73° WNW 05:38:06 10° NNE
STARLINK 4.1 05:29:40 10° W 05:33:40 46° N 05:37:41 10° ENE
Okean O Rocket 2.2 05:30:58 10° N 05:34:52 33° WNW 05:38:45 10° SW
STARLINK-32 4.1 05:31:19 10° W 05:35:20 46° N 05:39:21 10° ENE
Cosmos 2228 Rocket 4.4 05:33:07 10° NW 05:36:30 21° W 05:39:53 10° SW
Cosmos 2360 Rocket 3.7 05:33:05 10° WNW 05:36:37 17° W 05:40:08 10° SW
STARLINK-40 4.1 05:32:59 10° W 05:37:00 45° N 05:41:00 10° ENE
Gbstr 26 Del rocket 2.9 05:34:40 10° WNW 05:38:22 57° N 05:42:10 10° E
STARLINK-44 4.1 05:34:41 10° W 05:38:41 45° N 05:42:41 10° ENE
Cosmos 1862 3.3 05:35:45 10° S 05:39:43 87° W 05:43:42 10° N
Helios 1A Rocket 3.8 05:36:50 10° N 05:40:18 27° WNW 05:43:46 10° WSW
STARLINK-36 4.1 05:36:22 10° W 05:40:22 45° N 05:44:23 10° ENE
Cosmos 1707 Rocket 3.8 05:36:09 10° NNW 05:40:32 53° W 05:44:53 10° S
COSMOS 2428 3.2 05:37:12 10° NW 05:42:34 43° WSW 05:47:55 10° S
